Location: Dulzura
(32.6442°N, 116.7814°W)
Time: 23:27:39
(UTC+00:00)

Cosmos 1500 Rocket - Visible Passes

Search period start: 27 June 2022 00:00
Search period end: 07 July 2022 00:00
Orbit: 604 x 630 km, 82.5° (Epoch: 27 June)

Date Brightness Start Highest point End Pass type
(mag) Time Alt. Az. Time Alt. Az. Time Alt. Az.
27 Jun 4.8 11:03:53 10° SSE 11:07:57 39° E 11:12:04 10° NNE visible
28 Jun 3.6 11:20:36 13° S 11:24:29 80° E 11:28:55 10° N visible
29 Jun 3.8 11:37:36 15° SSW 11:41:05 50° W 11:45:25 10° N visible
30 Jun 5.9 10:17:27 12° SE 10:20:12 20° E 10:23:24 10° NE visible
30 Jun 4.7 11:54:35 12° SW 11:57:47 26° WNW 12:01:30 10° NNW visible
01 Jul 4.8 10:34:24 22° SE 10:36:39 38° E 10:40:46 10° NNE visible
01 Jul 5.5 12:12:20 10° WSW 12:14:35 14° WNW 12:16:51 10° NW visible
02 Jul 3.6 10:51:19 34° S 10:53:10 78° E 10:57:36 10° N visible
03 Jul 3.8 11:08:12 34° SW 11:09:46 51° W 11:14:07 10° N visible
04 Jul 5.7 09:47:56 18° ESE 09:48:54 19° E 09:52:04 10° NE visible
04 Jul 4.7 11:25:04 22° WSW 11:26:28 26° WNW 11:30:14 10° NNW visible
05 Jul 4.6 10:04:47 36° ESE 10:05:20 37° E 10:09:26 10° NNE visible
05 Jul 5.5 11:41:54 13° W 11:43:16 14° WNW 11:45:37 10° NW visible
06 Jul 3.5 10:21:36 73° SE 10:21:51 77° E 10:26:18 10° N visible
